{"data":{"norad_id":67728,"epoch":"2026-09-19T22:41:03.647040Z","epoch_age_seconds":114347,"freshness":"FRESH","line1":"1 67728U 26026H   26262.94518110  .00008692  00000+0  27120-3 0  9992","line2":"2 67728  97.2858 314.7552 0000683 104.0202 256.1117 15.33451069 33897","mean_motion":15.33451069,"eccentricity":6.83e-5,"inclination_deg":97.2858,"raan_deg":314.7552,"arg_perigee_deg":104.0202,"mean_anomaly_deg":256.1117,"bstar":0.0002712,"rev_number":3389,"period_min":93.905833000531,"perigee_km":465.05769534097,"apogee_km":465.99253958621,"semimajor_km":6843.6621174636,"source":"CELESTRAK","updated_at":"2026-09-20T09:00:43.657715Z"}}